Location: Dziadowski
(50.3833°N, 20.0333°E)
Time: 19:49:39
(UTC+00:00)

SL-8 Rocket - Pass Details

Date: 18 January 2026
Orbit: 955 x 990 km, 82.9° (Epoch: 14 February)

Event Time Altitude Azimuth Distance (km) Brightness Sun altitude
Rises 04:57:01 0° 183° (S) 3,687 7.2 -14.6°
Reaches altitude 10° 04:59:32 10° 183° (S) 2,740 6.5 -14.2°
Maximum altitude 05:05:49 81° 97° (E) 1,003 4.2 -13.3°
Drops below altitude 10° 05:12:07 10° 11° (NNE) 2,739 6.3 -12.3°
Sets 05:14:38 0° 11° (N) 3,686 7.0 -11.9°
